Location: Landeleau
(48.2273°N, 3.7285°W)
Time: 01:41:33
(UTC+00:00)

Cosmos 1980 Rocket - Visible Passes

Search period start: 17 June 2021 00:00
Search period end: 27 June 2021 00:00
Orbit: 831 x 848 km, 71.0° (Epoch: 16 June)

Date Brightness Start Highest point End Pass type
(mag) Time Alt. Az. Time Alt. Az. Time Alt. Az.
17 Jun 5.2 03:26:17 10° N 03:30:31 21° NE 03:34:43 10° E visible
17 Jun 5.1 21:50:16 10° W 21:54:21 20° NW 21:58:27 10° N visible
18 Jun 5.3 03:10:37 10° N 03:14:44 20° NE 03:18:50 10° E visible
18 Jun 5.1 21:34:23 10° W 21:38:34 21° NW 21:42:46 10° N visible
19 Jun 5.3 02:54:56 10° N 02:58:56 20° NE 03:02:56 10° E visible
19 Jun 5.1 21:18:30 10° W 21:22:48 22° NW 21:27:05 10° N visible
20 Jun 5.2 02:39:16 10° N 02:43:09 19° NE 02:47:02 10° E visible
20 Jun 5.1 21:02:38 10° W 21:07:01 23° NW 21:11:25 10° N visible
21 Jun 5.2 02:23:35 10° N 02:27:22 18° NE 02:31:08 10° E visible
22 Jun 5.2 02:07:55 10° N 02:11:34 17° NE 02:15:13 10° ENE visible
23 Jun 5.1 01:52:16 10° N 01:55:47 17° NE 01:59:17 10° ENE visible
24 Jun 5.1 01:36:35 10° N 01:39:59 16° NE 01:43:22 10° ENE visible
24 Jun 2.8 03:19:35 10° NNW 03:25:10 64° ENE 03:30:43 10° SE visible
25 Jun 5.1 01:20:57 10° N 01:24:11 15° NE 01:27:26 10° ENE visible
25 Jun 2.8 03:03:52 10° NNW 03:09:25 60° ENE 03:14:57 10° SE visible
26 Jun 5.1 01:05:17 10° N 01:08:24 15° NE 01:11:30 10° ENE visible
26 Jun 2.9 02:48:09 10° NNW 02:53:41 57° ENE 02:59:11 10° SE visible
